Location: ??????
(41.3164°N, 22.6615°E)
Time: 04:41:42
(UTC+00:00)

CUBEBUG 2 - Pass Details

Date: 28 June 2022
Orbit: 584 x 692 km, 97.7° (Epoch: 17 August)

Event Time Altitude Azimuth Distance (km) Brightness Sun altitude
Rises 01:05:38 0° 18° (NNE) 2,824 ? -16.3°
Reaches altitude 10° 01:07:51 10° 25° (NNE) 1,926 ? -16.1°
Maximum altitude 01:11:52 46° 99° (E) 810 ? -15.6°
Enters shadow 01:15:16 14° 170° (S) 1,690 ? -15.2°
